EW4330 Caprarola - Centro Storico IT current weather conditions

sailwx.info

Wind from 253 at 2 knots gusting 6

Air temperature 27.8° C
Dewpoint 8.1° C

Last reported at 2020-Jul-13 14:05 UTC.
Time now 2020-Jul-13 14:20 UTC

Location: N 42°19' E 012°14'.
View on Google Maps.

See reports from other nearby stations

  
Tides and Currents Weather Stations Pressure Air Temp Water Temp Dewpoint Dewpoint Depression Visibility Wind Speed Wind Dir Waves Ship Positions
date/time (UTC)wind fromknots sea level pressurealtimeterstation pressurevisibilityair tempwater tempwave heightnotes
2020-Jul-13 14:05 253 2 gusting 6 27.8
2020-Jul-13 14:00 197 1 gusting 4 27.8
2020-Jul-13 13:55 169 0 gusting 2 27.8
2020-Jul-13 13:50 209 1 gusting 5 27.8
2020-Jul-13 13:45 185 1 gusting 4 27.8
2020-Jul-13 13:40 193 1 gusting 4 27.8
2020-Jul-13 13:35 194 1 gusting 2 27.8
2020-Jul-13 13:30 172 1 gusting 6 27.8
2020-Jul-13 13:25 158 1 gusting 4 28.3
2020-Jul-13 13:20 229 0 gusting 2 28.3
2020-Jul-13 13:15 224 0 gusting 4 27.8
2020-Jul-13 13:10 238 1 gusting 4 27.8
2020-Jul-13 13:05 173 2 gusting 4 27.8
2020-Jul-13 12:55 193 3 gusting 5 27.8
2020-Jul-13 12:50 192 1 gusting 5 27.8
2020-Jul-13 12:40 186 0 gusting 5 27.8
2020-Jul-13 12:36 171 1 gusting 4 27.8
2020-Jul-13 12:30 189 2 gusting 5 27.8
2020-Jul-13 12:25 174 1 gusting 4 27.8
2020-Jul-13 12:20 230 1 gusting 4 27.8
2020-Jul-13 12:10 147 1 gusting 6 27.8
2020-Jul-13 12:05 241 2 gusting 6 27.2
2020-Jul-13 12:00 144 0 gusting 4 27.2
2020-Jul-13 11:55 182 1 gusting 5 27.2
2020-Jul-13 11:50 178 1 gusting 5 27.8
2020-Jul-13 11:45 185 1 gusting 5 27.2
2020-Jul-13 11:40 202 2 gusting 6 27.2
2020-Jul-13 11:35 216 1 gusting 2 27.8
2020-Jul-13 11:30 155 2 gusting 5 27.2
2020-Jul-13 11:25 195 1 gusting 4 26.7
2020-Jul-13 11:20 201 1 gusting 5 26.7
2020-Jul-13 11:10 243 1 gusting 5 26.7
2020-Jul-13 11:05 190 1 gusting 5 26.7
2020-Jul-13 11:00 161 2 gusting 4 26.7
2020-Jul-13 10:55 179 0 gusting 4 26.7
2020-Jul-13 10:50 174 2 gusting 5 26.7
2020-Jul-13 10:45 224 3 gusting 6 26.1
2020-Jul-13 10:40 163 1 gusting 5 26.1
2020-Jul-13 10:35 175 0 gusting 4 26.1
2020-Jul-13 10:30 194 1 gusting 5 25.6
2020-Jul-13 10:25 180 1 gusting 4 25.6
2020-Jul-13 10:20 204 2 gusting 5 25.6
2020-Jul-13 10:15 159 2 gusting 5 25.6
2020-Jul-13 10:10 160 1 gusting 2 25.6
2020-Jul-13 10:05 184 1 gusting 5 25.6
2020-Jul-13 10:00 140 1 gusting 5 25.6
2020-Jul-13 09:55 149 1 gusting 5 25.6
2020-Jul-13 09:50 187 1 gusting 5 25.0
2020-Jul-13 09:45 171 2 gusting 5 24.4
2020-Jul-13 09:40 189 1 gusting 5 24.4
2020-Jul-13 09:35 180 2 gusting 5 24.4
2020-Jul-13 09:30 163 2 gusting 5 24.4
2020-Jul-13 09:25 169 2 gusting 6 24.4
2020-Jul-13 09:20 181 2 gusting 5 24.4
2020-Jul-13 09:15 197 1 gusting 5 24.4
2020-Jul-13 09:10 173 2 gusting 4 23.9
2020-Jul-13 09:05 205 1 gusting 4 23.9
2020-Jul-13 08:55 197 2 gusting 5 23.3
2020-Jul-13 08:50 160 2 gusting 4 23.3
2020-Jul-13 08:45 160 3 gusting 6 23.3
2020-Jul-13 08:40 177 1 gusting 6 23.3
2020-Jul-13 08:35 212 3 gusting 6 22.8
2020-Jul-13 08:30 190 1 gusting 6 22.8
2020-Jul-13 08:25 171 2 gusting 7 22.8
2020-Jul-13 08:20 187 1 gusting 5 23.3
2020-Jul-13 08:10 162 1 gusting 5 22.8
2020-Jul-13 08:05 191 1 gusting 4 22.8
2020-Jul-13 07:55 163 1 gusting 4 22.8
2020-Jul-13 07:50 250 1 gusting 5 22.8
2020-Jul-13 07:40 160 1 gusting 4 22.2
2020-Jul-13 07:35 193 2 gusting 5 22.2
2020-Jul-13 07:25 162 2 gusting 6 22.2
2020-Jul-13 07:20 175 2 gusting 4 22.2
2020-Jul-13 07:15 207 1 gusting 4 22.2
2020-Jul-13 07:10 166 0 gusting 4 22.2
2020-Jul-13 07:05 183 1 gusting 4 22.2
2020-Jul-13 07:00 196 2 gusting 4 21.7
2020-Jul-13 06:55 203 1 gusting 2 21.7
2020-Jul-13 06:50 192 1 gusting 5 21.7
2020-Jul-13 06:45 206 2 gusting 4 21.7
2020-Jul-13 06:40 184 1 gusting 2 21.7
2020-Jul-13 06:35 192 1 gusting 2 21.1
2020-Jul-13 06:30 169 1 gusting 4 21.1
2020-Jul-13 06:25 199 2 gusting 4 21.1
2020-Jul-13 06:15 193 0 gusting 2 21.1
2020-Jul-13 06:10 186 1 gusting 4 20.6
2020-Jul-13 06:05 153 1 gusting 4 20.6
2020-Jul-13 06:00 202 1 gusting 2 20.6
2020-Jul-13 05:55 188 1 gusting 1 20.0
2020-Jul-13 05:50 193 1 gusting 4 20.0
2020-Jul-13 05:45 172 1 gusting 2 20.0
2020-Jul-13 05:40 173 1 gusting 2 20.0
2020-Jul-13 05:35 174 1 gusting 2 19.4
2020-Jul-13 05:30 166 0 gusting 2 19.4
2020-Jul-13 05:25 198 1 gusting 2 19.4
2020-Jul-13 05:20 212 0 gusting 1 18.9
2020-Jul-13 05:15 290 1 gusting 2 18.9
2020-Jul-13 05:10 225 0 gusting 1 18.9
2020-Jul-13 05:05 237 0 gusting 1 18.9
2020-Jul-13 04:55 259 1 gusting 2 18.9
2020-Jul-13 04:50 215 0 gusting 2 18.9
2020-Jul-13 04:45 252 2 gusting 4 18.9
2020-Jul-13 04:40 222 1 gusting 2 18.9
2020-Jul-13 04:35 264 1 gusting 2 18.9
2020-Jul-13 04:30 222 0 gusting 2 18.9
2020-Jul-13 04:25 265 1 gusting 4 18.9
2020-Jul-13 04:20 220 0 gusting 4 18.9
2020-Jul-13 04:15 231 1 gusting 4 18.9
2020-Jul-13 04:10 193 0 gusting 2 18.9
2020-Jul-13 04:05 235 0 gusting 1 18.9
2020-Jul-13 03:55 245 0 gusting 1 18.9
2020-Jul-13 03:50 214 0 gusting 1 18.9
2020-Jul-13 03:45 172 0 gusting 1 18.9
2020-Jul-13 03:40 273 1 gusting 4 18.9
2020-Jul-13 03:35 237 1 gusting 4 18.9
2020-Jul-13 03:25 263 1 gusting 4 18.9
2020-Jul-13 03:20 221 1 gusting 4 18.9
2020-Jul-13 03:15 167 0 gusting 2 19.4
2020-Jul-13 03:10 196 1 gusting 5 19.4
2020-Jul-13 03:05 229 1 gusting 5 19.4
2020-Jul-13 03:00 214 1 gusting 4 19.4
2020-Jul-13 02:55 229 1 gusting 4 19.4
2020-Jul-13 02:50 232 1 gusting 2 19.4
2020-Jul-13 02:40 211 0 gusting 1 19.4
2020-Jul-13 02:35 211 19.4
2020-Jul-13 02:30 209 1 gusting 4 19.4
2020-Jul-13 02:25 234 0 gusting 4 19.4
2020-Jul-13 02:20 234 0 gusting 1 19.4
2020-Jul-13 02:15 231 0 gusting 2 19.4
2020-Jul-13 02:10 184 2 gusting 5 19.4
2020-Jul-13 02:05 229 0 gusting 5 19.4
2020-Jul-13 02:00 207 0 gusting 4 19.4
2020-Jul-13 01:55 236 1 gusting 2 19.4
2020-Jul-13 01:50 223 1 gusting 2 20.0
2020-Jul-13 01:45 264 0 gusting 1 20.0
2020-Jul-13 01:40 222 0 gusting 1 20.0
2020-Jul-13 01:35 209 0 gusting 1 20.0
2020-Jul-13 01:30 129 0 gusting 1 20.0
2020-Jul-13 01:25 230 20.0
2020-Jul-13 01:20 213 1 gusting 4 20.0
2020-Jul-13 01:15 242 1 gusting 4 20.0
2020-Jul-13 01:10 219 0 gusting 1 20.0
2020-Jul-13 01:05 212 0 gusting 1 20.0
2020-Jul-13 01:00 205 0 gusting 1 20.0
2020-Jul-13 00:55 224 0 gusting 1 20.0
2020-Jul-13 00:45 222 0 gusting 1 20.0
2020-Jul-13 00:40 158 0 gusting 1 20.0
2020-Jul-13 00:35 220 1 gusting 4 20.0
2020-Jul-13 00:30 266 1 gusting 4 20.6
2020-Jul-13 00:25 210 1 gusting 4 20.6
2020-Jul-13 00:20 239 0 gusting 4 20.6
2020-Jul-13 00:15 255 1 gusting 4 20.6
2020-Jul-13 00:10 217 0 gusting 4 20.6
2020-Jul-13 00:05 232 1 gusting 4 20.6
2020-Jul-13 00:00 272 0 gusting 1 20.6
2020-Jul-12 23:55 242 1 gusting 2 20.6
2020-Jul-12 23:50 245 1 gusting 5 20.6
2020-Jul-12 23:45 248 1 gusting 5 20.6
2020-Jul-12 23:40 297 1 gusting 4 20.6
2020-Jul-12 23:35 236 1 gusting 4 20.6
2020-Jul-12 23:30 258 0 gusting 5 20.6
2020-Jul-12 23:25 219 1 gusting 5 20.6
2020-Jul-12 23:20 234 1 gusting 2 20.6
2020-Jul-12 23:15 273 1 gusting 4 20.6
2020-Jul-12 23:10 250 1 gusting 5 20.6
2020-Jul-12 23:05 220 1 gusting 5 20.6
2020-Jul-12 23:00 220 1 gusting 5 20.6
2020-Jul-12 22:55 213 1 gusting 5 21.1
2020-Jul-12 22:50 205 1 gusting 4 21.1
2020-Jul-12 22:45 234 1 gusting 2 21.1
2020-Jul-12 22:40 220 1 gusting 2 21.1
2020-Jul-12 22:35 272 1 gusting 2 21.1
2020-Jul-12 22:30 232 0 gusting 2 21.1
2020-Jul-12 22:25 225 1 gusting 2 21.1
2020-Jul-12 22:20 252 1 gusting 2 21.1
2020-Jul-12 22:15 232 1 gusting 4 21.1
2020-Jul-12 22:10 226 1 gusting 4 21.1
2020-Jul-12 22:05 262 1 gusting 2 21.1
2020-Jul-12 22:00 204 0 gusting 1 21.7
2020-Jul-12 21:55 228 0 gusting 1 21.7
2020-Jul-12 21:50 245 1 gusting 4 21.7
2020-Jul-12 21:45 227 0 gusting 4 21.7
2020-Jul-12 21:40 223 1 gusting 2 21.7
2020-Jul-12 21:35 197 21.7
2020-Jul-12 21:25 250 1 gusting 2 21.7
2020-Jul-12 21:20 254 0 gusting 2 21.7
2020-Jul-12 21:15 207 0 gusting 2 22.2
2020-Jul-12 21:10 321 1 gusting 2 22.2
2020-Jul-12 21:05 217 0 gusting 4 22.2
2020-Jul-12 21:00 252 1 gusting 4 22.2
2020-Jul-12 20:55 221 0 gusting 1 22.2
2020-Jul-12 20:50 234 1 gusting 2 22.2
2020-Jul-12 20:45 221 0 gusting 1 22.2
2020-Jul-12 20:40 197 1 gusting 4 22.2
2020-Jul-12 20:35 241 2 gusting 4 22.2
2020-Jul-12 20:30 245 0 gusting 1 22.2
2020-Jul-12 20:25 240 1 gusting 1 22.2
2020-Jul-12 20:20 213 1 gusting 4 22.2
2020-Jul-12 20:15 249 1 gusting 4 22.2
2020-Jul-12 20:10 218 1 gusting 2 22.2
2020-Jul-12 20:05 205 0 gusting 4 22.2
2020-Jul-12 20:00 219 2 gusting 5 22.2
2020-Jul-12 19:55 208 0 gusting 2 22.2
2020-Jul-12 19:50 237 0 gusting 2 22.2
2020-Jul-12 19:45 288 1 gusting 4 22.2
2020-Jul-12 19:40 242 0 gusting 2 22.2
2020-Jul-12 19:35 227 1 gusting 2 22.8
2020-Jul-12 19:25 212 1 gusting 4 22.8
2020-Jul-12 19:20 222 0 gusting 1 22.8
2020-Jul-12 19:15 209 1 gusting 2 22.8
2020-Jul-12 19:10 231 0 gusting 2 22.8
2020-Jul-12 19:05 235 0 gusting 1 22.8
2020-Jul-12 19:00 204 1 gusting 5 22.8
2020-Jul-12 18:55 219 2 gusting 4 22.8
2020-Jul-12 18:50 262 1 gusting 4 23.3
2020-Jul-12 18:45 192 0 gusting 4 23.3
2020-Jul-12 18:40 229 0 gusting 6 23.3
2020-Jul-12 18:30 237 0 gusting 1 23.3
2020-Jul-12 18:25 214 0 gusting 2 23.3
2020-Jul-12 18:20 197 1 gusting 2 23.9
2020-Jul-12 18:15 245 0 gusting 4 23.9
2020-Jul-12 18:10 241 2 gusting 6 23.9
2020-Jul-12 18:05 221 1 gusting 2 24.4
2020-Jul-12 18:00 231 1 gusting 2 24.4
2020-Jul-12 17:55 198 1 gusting 2 24.4
2020-Jul-12 17:50 193 0 gusting 1 24.4
2020-Jul-12 17:45 202 0 gusting 2 25.0
2020-Jul-12 17:40 216 1 gusting 2 25.0
2020-Jul-12 17:35 202 0 gusting 1 25.0
2020-Jul-12 17:30 239 1 gusting 4 25.6
2020-Jul-12 17:25 215 0 gusting 1 25.6
2020-Jul-12 17:20 216 0 gusting 1 25.6
2020-Jul-12 17:15 219 0 gusting 1 25.6
2020-Jul-12 17:10 249 1 gusting 2 25.6
2020-Jul-12 17:05 223 0 gusting 1 25.6
2020-Jul-12 17:00 180 1 gusting 2 26.1
2020-Jul-12 16:55 181 0 gusting 4 26.1
2020-Jul-12 16:50 228 1 gusting 4 26.1
2020-Jul-12 16:45 238 0 gusting 2 26.1
2020-Jul-12 16:40 215 1 gusting 1 26.1
2020-Jul-12 16:35 211 1 gusting 1 26.1
2020-Jul-12 16:30 247 0 gusting 4 26.1
2020-Jul-12 16:25 236 1 gusting 4 26.7
2020-Jul-12 16:20 257 1 gusting 4 26.7
2020-Jul-12 16:15 232 0 gusting 5 26.7
2020-Jul-12 16:10 270 1 gusting 4 26.7
2020-Jul-12 16:05 232 1 gusting 2 27.2
2020-Jul-12 16:00 227 0 gusting 1 27.2
2020-Jul-12 15:55 220 1 gusting 4 27.2
2020-Jul-12 15:50 204 1 gusting 2 27.8
2020-Jul-12 15:45 260 1 gusting 2 27.8
2020-Jul-12 15:40 174 0 gusting 2 27.8
2020-Jul-12 15:35 239 1 gusting 2 27.8
2020-Jul-12 15:30 185 0 gusting 1 27.8
2020-Jul-12 15:25 184 0 gusting 1 27.8
2020-Jul-12 15:20 213 1 gusting 4 27.8
2020-Jul-12 15:10 214 1 gusting 2 27.8
2020-Jul-12 15:05 197 0 gusting 1 27.8
2020-Jul-12 15:00 215 1 gusting 1 27.8
2020-Jul-12 14:55 221 1 gusting 2 28.3
2020-Jul-12 14:50 197 0 gusting 2 28.3
2020-Jul-12 14:45 220 0 gusting 2 28.3
2020-Jul-12 14:40 216 0 gusting 1 28.3
2020-Jul-12 14:35 211 0 gusting 1 28.9
2020-Jul-12 14:25 165 0 gusting 1 29.4
2020-Jul-12 14:20 187 1 gusting 2 29.4
2020-Jul-12 14:15 144 1 gusting 2 29.4
2020-Jul-12 14:10 163 1 gusting 4 29.4
2020-Jul-12 14:05 160 0 gusting 2 29.4
2020-Jul-12 14:00 182 0 gusting 2 28.9
2020-Jul-12 13:55 160 1 gusting 4 28.9
2020-Jul-12 13:50 168 0 gusting 2 29.4
2020-Jul-12 13:45 207 0 gusting 4 29.4
2020-Jul-12 13:40 168 0 gusting 1 30.0
2020-Jul-12 13:35 162 1 gusting 2 30.0
2020-Jul-12 13:30 197 1 gusting 2 29.4
2020-Jul-12 13:25 199 1 gusting 2 29.4
2020-Jul-12 13:20 146 2 gusting 5 30.0
2020-Jul-12 13:15 129 1 gusting 6 30.0
2020-Jul-12 13:10 132 2 gusting 5 30.0
2020-Jul-12 13:05 187 1 gusting 5 30.0
2020-Jul-12 13:00 165 0 gusting 4 30.0
2020-Jul-12 12:55 112 2 gusting 4 30.6
2020-Jul-12 12:50 207 1 gusting 4 30.0
2020-Jul-12 12:45 187 1 gusting 5 30.6
2020-Jul-12 12:40 094 1 gusting 4 30.6
2020-Jul-12 12:35 135 1 gusting 1 30.6
2020-Jul-12 12:30 185 2 gusting 6 30.0
2020-Jul-12 12:25 182 1 gusting 2 30.6
2020-Jul-12 12:20 137 0 gusting 2 30.6
2020-Jul-12 12:15 256 2 gusting 4 30.6
2020-Jul-12 12:10 207 1 gusting 4 30.0
2020-Jul-12 12:05 237 1 gusting 4 30.0
2020-Jul-12 12:00 145 1 gusting 4 30.0
2020-Jul-12 11:55 137 1 gusting 2 29.4
2020-Jul-12 11:50 183 0 gusting 2 29.4
2020-Jul-12 11:45 159 1 gusting 4 30.0
2020-Jul-12 11:40 182 2 gusting 5 30.0
2020-Jul-12 11:35 158 2 gusting 4 29.4
2020-Jul-12 11:30 226 1 gusting 4 29.4
2020-Jul-12 11:25 175 2 gusting 5 29.4
2020-Jul-12 11:20 162 1 gusting 2 29.4
2020-Jul-12 11:15 206 2 gusting 5 29.4
2020-Jul-12 11:10 177 1 gusting 2 29.4
2020-Jul-12 11:05 158 1 gusting 4 28.9
2020-Jul-12 11:00 170 1 gusting 4 29.4
2020-Jul-12 10:55 187 1 gusting 5 28.9
2020-Jul-12 10:50 153 1 gusting 5 28.9
2020-Jul-12 10:45 131 1 gusting 5 28.9
2020-Jul-12 10:40 147 2 gusting 5 28.3
2020-Jul-12 10:35 162 3 gusting 6 28.3
2020-Jul-12 10:30 119 1 gusting 5 28.3
2020-Jul-12 10:25 133 1 gusting 5 28.3
2020-Jul-12 10:20 104 1 gusting 5 28.3
2020-Jul-12 10:15 142 1 gusting 4 28.3
2020-Jul-12 10:10 144 2 gusting 5 28.3
2020-Jul-12 10:05 135 3 gusting 6 27.8
2020-Jul-12 10:00 139 2 gusting 6 27.8
2020-Jul-12 09:55 234 2 gusting 5 27.8
2020-Jul-12 09:50 111 2 gusting 5 27.8
2020-Jul-12 09:45 129 2 gusting 5 27.8
2020-Jul-12 09:40 161 1 gusting 2 27.8
2020-Jul-12 09:35 177 1 gusting 4 27.2
2020-Jul-12 09:30 165 3 gusting 6 27.8
2020-Jul-12 09:25 171 2 gusting 6 27.2
2020-Jul-12 09:20 159 1 gusting 4 27.2
2020-Jul-12 09:15 170 1 gusting 4 27.2
2020-Jul-12 09:10 180 1 gusting 5 27.2
2020-Jul-12 09:05 174 1 gusting 4 27.2
2020-Jul-12 09:00 182 1 gusting 2 26.7
2020-Jul-12 08:55 161 2 gusting 5 26.7
2020-Jul-12 08:50 160 1 gusting 6 26.7
2020-Jul-12 08:45 067 2 gusting 4 26.1
2020-Jul-12 08:40 175 2 gusting 5 26.1
2020-Jul-12 08:35 196 2 gusting 5 26.7
2020-Jul-12 08:30 162 2 gusting 5 26.7
2020-Jul-12 08:25 179 1 gusting 2 26.7
2020-Jul-12 08:20 175 1 gusting 2 26.7
2020-Jul-12 08:15 170 1 gusting 2 26.1
2020-Jul-12 08:10 173 1 gusting 5 26.1
2020-Jul-12 08:05 171 1 gusting 2 26.1
2020-Jul-12 08:00 169 1 gusting 2 25.6
2020-Jul-12 07:55 194 2 gusting 5 25.6
2020-Jul-12 07:50 207 1 gusting 4 25.6
2020-Jul-12 07:45 194 0 gusting 4 25.6
2020-Jul-12 07:40 184 1 gusting 4 25.6
2020-Jul-12 07:35 137 2 gusting 6 25.0
2020-Jul-12 07:30 185 2 gusting 4 25.0
2020-Jul-12 07:25 172 1 gusting 5 25.6
2020-Jul-12 07:20 176 2 gusting 5 25.6
2020-Jul-12 07:15 161 1 gusting 4 25.6
2020-Jul-12 07:10 168 2 gusting 5 25.6
2020-Jul-12 07:05 134 1 gusting 4 25.6
2020-Jul-12 07:00 200 1 gusting 2 25.6
2020-Jul-12 06:40 177 1 gusting 2 25.0
2020-Jul-12 06:35 160 1 gusting 2 25.0
2020-Jul-12 06:30 170 1 gusting 2 25.0
2020-Jul-12 06:25 172 2 gusting 2 25.0
2020-Jul-12 06:20 175 0 gusting 2 25.0
2020-Jul-12 06:15 168 0 gusting 1 25.0
2020-Jul-12 06:10 183 1 gusting 2 25.0
2020-Jul-12 06:05 178 1 gusting 4 25.0
2020-Jul-12 06:00 200 1 gusting 2 25.0
2020-Jul-12 05:55 187 0 gusting 1 24.4
2020-Jul-12 05:50 172 1 gusting 4 24.4
2020-Jul-12 05:45 178 0 gusting 1 24.4
2020-Jul-12 05:40 190 0 gusting 2 24.4
2020-Jul-12 05:35 194 1 gusting 1 23.9
2020-Jul-12 05:25 206 0 gusting 2 23.9
2020-Jul-12 05:20 208 0 gusting 1 23.3
2020-Jul-12 05:15 252 0 gusting 1 23.3
2020-Jul-12 05:10 211 0 gusting 1 22.8
2020-Jul-12 05:05 208 1 gusting 2 22.8
2020-Jul-12 05:00 212 0 gusting 1 22.2
2020-Jul-12 04:55 225 1 gusting 2 22.2
2020-Jul-12 04:45 235 0 gusting 2 21.7
2020-Jul-12 04:40 234 1 gusting 2 21.7
2020-Jul-12 04:35 215 1 gusting 2 21.7
2020-Jul-12 04:30 272 0 gusting 1 21.7
2020-Jul-12 04:25 244 1 gusting 2 21.7
2020-Jul-12 04:20 244 0 gusting 2 21.7
2020-Jul-12 04:15 345 1 gusting 2 21.1
2020-Jul-12 04:10 223 1 gusting 4 21.1
2020-Jul-12 04:05 216 0 gusting 2 21.1
2020-Jul-12 04:00 230 0 gusting 4 21.1
2020-Jul-12 03:55 241 1 gusting 4 21.1
2020-Jul-12 03:45 284 21.1
2020-Jul-12 03:40 231 21.7
2020-Jul-12 03:35 224 21.7
2020-Jul-12 03:30 264 21.7
2020-Jul-12 03:25 253 21.7
2020-Jul-12 03:20 242 21.7
2020-Jul-12 03:15 258 21.7
2020-Jul-12 03:10 244 21.7
2020-Jul-12 03:05 278 21.7
2020-Jul-12 03:00 324 21.7
2020-Jul-12 02:55 242 0 gusting 1 21.7
2020-Jul-12 02:50 285 21.7
2020-Jul-12 02:45 315 0 gusting 1 21.7
2020-Jul-12 02:40 269 0 gusting 1 21.7
2020-Jul-12 02:35 307 0 gusting 1 21.7
2020-Jul-12 02:30 248 1 gusting 2 21.1
2020-Jul-12 02:25 306 0 gusting 1 21.1
2020-Jul-12 02:20 288 21.1
2020-Jul-12 02:15 316 0 gusting 1 21.1
2020-Jul-12 02:10 313 0 gusting 1 21.1
2020-Jul-12 02:05 310 1 gusting 1 21.1
2020-Jul-12 02:00 311 1 gusting 1 21.1
2020-Jul-12 01:55 298 0 gusting 1 21.1
2020-Jul-12 01:50 292 1 gusting 2 21.1
2020-Jul-12 01:45 305 1 gusting 1 21.1
2020-Jul-12 01:40 300 0 gusting 1 21.1
2020-Jul-12 01:35 284 0 gusting 1 21.1
2020-Jul-12 01:30 306 0 gusting 1 21.1
2020-Jul-12 01:25 313 0 gusting 1 21.1
2020-Jul-12 01:20 273 0 gusting 1 20.6
2020-Jul-12 01:15 313 0 gusting 1 20.6
2020-Jul-12 01:10 271 0 gusting 1 20.0
2020-Jul-12 01:05 267 0 gusting 1 20.0
2020-Jul-12 00:55 298 0 gusting 1 18.9
2020-Jul-12 00:45 225 19.4
2020-Jul-12 00:40 225 19.4
2020-Jul-12 00:35 225 19.4
2020-Jul-12 00:30 225 19.4
2020-Jul-12 00:25 225 19.4
2020-Jul-12 00:20 303 20.0
2020-Jul-12 00:15 270 20.0
2020-Jul-12 00:10 251 20.6
2020-Jul-12 00:05 292 1 gusting 1 20.6
2020-Jul-12 00:00 315 1 gusting 2 21.1
2020-Jul-11 23:55 298 1 gusting 2 21.1
2020-Jul-11 23:50 316 1 gusting 1 21.1
2020-Jul-11 23:45 318 1 gusting 1 21.1
2020-Jul-11 23:40 313 1 gusting 1 21.1
2020-Jul-11 23:35 306 0 gusting 1 21.1
2020-Jul-11 23:25 307 1 gusting 2 21.1
2020-Jul-11 23:15 296 1 gusting 1 21.1
2020-Jul-11 23:10 295 1 gusting 1 21.1
2020-Jul-11 23:05 318 0 gusting 1 21.1
2020-Jul-11 23:00 280 0 gusting 1 21.1
2020-Jul-11 22:55 286 1 gusting 1 21.1
2020-Jul-11 22:50 263 1 gusting 1 21.1
2020-Jul-11 22:45 249 1 gusting 1 21.1
2020-Jul-11 22:40 250 1 gusting 2 21.1
2020-Jul-11 22:35 245 1 gusting 2 21.1
2020-Jul-11 22:30 242 1 gusting 2 21.1
2020-Jul-11 22:25 260 1 gusting 2 21.1
2020-Jul-11 22:20 261 1 gusting 2 21.1
2020-Jul-11 22:15 268 1 gusting 2 21.1
2020-Jul-11 22:10 233 1 gusting 2 21.1
2020-Jul-11 22:05 246 1 gusting 2 21.1
2020-Jul-11 21:55 258 0 gusting 1 21.1
2020-Jul-11 21:50 254 1 gusting 1 21.1
2020-Jul-11 21:45 228 1 gusting 2 21.1
2020-Jul-11 21:35 238 0 gusting 1 21.7
2020-Jul-11 21:30 240 1 gusting 2 21.7
2020-Jul-11 21:25 235 1 gusting 2 21.7
2020-Jul-11 21:20 245 2 gusting 2 21.1
2020-Jul-11 21:15 257 1 gusting 2 21.7
2020-Jul-11 21:10 248 1 gusting 2 21.7
2020-Jul-11 21:05 238 1 gusting 2 22.2
2020-Jul-11 21:00 239 1 gusting 2 22.2
2020-Jul-11 20:55 247 0 gusting 1 22.2
2020-Jul-11 20:45 240 1 gusting 1 22.2
2020-Jul-11 20:40 227 1 gusting 1 22.2
2020-Jul-11 20:35 256 1 gusting 4 22.2
2020-Jul-11 20:30 250 1 gusting 2 22.8
2020-Jul-11 20:25 252 1 gusting 1 22.8
2020-Jul-11 20:20 227 0 gusting 1 22.8
2020-Jul-11 20:15 312 0 gusting 1 22.8
2020-Jul-11 20:10 292 0 gusting 1 22.8
2020-Jul-11 20:05 277 0 gusting 1 22.8
2020-Jul-11 20:00 292 0 gusting 1 22.8
2020-Jul-11 19:50 246 1 gusting 2 22.8
2020-Jul-11 19:45 262 0 gusting 1 22.8
2020-Jul-11 19:40 260 0 gusting 1 22.8
2020-Jul-11 19:35 242 0 gusting 1 23.3
2020-Jul-11 19:25 336 0 gusting 1 23.3
2020-Jul-11 19:20 239 0 gusting 1 23.3
2020-Jul-11 19:15 190 23.3
2020-Jul-11 19:10 061 23.3
2020-Jul-11 19:05 168 23.3
2020-Jul-11 19:00 202 23.3
2020-Jul-11 18:55 048 0 gusting 1 23.3
2020-Jul-11 18:50 200 0 gusting 1 23.3
2020-Jul-11 18:45 254 23.3
2020-Jul-11 18:40 163 0 gusting 2 23.3
2020-Jul-11 18:35 338 0 gusting 1 23.3
2020-Jul-11 18:30 170 0 gusting 1 23.9
2020-Jul-11 18:25 202 23.9
2020-Jul-11 18:20 171 0 gusting 2 23.9
2020-Jul-11 18:15 115 0 gusting 1 23.9
2020-Jul-11 18:10 179 0 gusting 1 24.4
2020-Jul-11 18:00 165 0 gusting 2 24.4
2020-Jul-11 17:55 134 24.4
2020-Jul-11 17:50 121 0 gusting 2 25.0
2020-Jul-11 17:45 108 0 gusting 1 25.0
2020-Jul-11 17:40 145 0 gusting 1 25.0
2020-Jul-11 17:35 148 0 gusting 2 25.0
2020-Jul-11 17:30 154 0 gusting 2 25.6
2020-Jul-11 17:25 135 0 gusting 2 25.6
2020-Jul-11 17:20 140 0 gusting 1 25.6
2020-Jul-11 17:15 109 0 gusting 1 26.1
2020-Jul-11 17:10 130 1 gusting 2 26.1
2020-Jul-11 17:05 175 1 gusting 2 26.1
2020-Jul-11 17:00 137 0 gusting 2 26.1
2020-Jul-11 16:55 075 1 gusting 2 26.7
2020-Jul-11 16:50 100 0 gusting 1 26.7
2020-Jul-11 16:45 135 0 gusting 1 26.7
2020-Jul-11 16:35 107 0 gusting 1 26.7
2020-Jul-11 16:30 112 0 gusting 4 26.7
2020-Jul-11 16:25 098 1 gusting 4 27.2
2020-Jul-11 16:20 153 1 gusting 2 27.2
2020-Jul-11 16:15 176 1 gusting 4 27.2
2020-Jul-11 16:05 141 0 gusting 2 27.2
2020-Jul-11 16:00 063 1 gusting 5 27.2
2020-Jul-11 15:55 112 0 gusting 5 27.8
2020-Jul-11 15:50 290 1 gusting 5 27.8
2020-Jul-11 15:40 109 0 gusting 4 27.8
2020-Jul-11 15:35 119 1 gusting 4 27.8
2020-Jul-11 15:30 108 0 gusting 4 27.8
2020-Jul-11 15:25 079 1 gusting 2 27.8
2020-Jul-11 15:20 189 0 gusting 2 27.8
2020-Jul-11 15:15 154 0 gusting 4 27.8
2020-Jul-11 15:10 167 1 gusting 4 28.3
2020-Jul-11 15:05 136 1 gusting 5 28.3
2020-Jul-11 15:00 157 1 gusting 4 28.3
2020-Jul-11 14:55 173 1 gusting 5 28.9
2020-Jul-11 14:50 107 1 gusting 4 28.9
2020-Jul-11 14:45 157 1 gusting 4 28.9
2020-Jul-11 14:40 143 1 gusting 2 28.9
2020-Jul-11 14:35 125 1 gusting 4 29.4
2020-Jul-11 14:25 190 1 gusting 2 28.9
2020-Jul-11 14:15 144 0 gusting 5 28.9
2020-Jul-11 14:10 127 1 gusting 4 28.9
2020-Jul-11 14:05 127 1 gusting 4 28.9
2020-Jul-11 14:00 095 1 gusting 4 28.9